Terminal Aerodrome Forecast
Issued by NWS

Home | Current Version | Previous Version | Text Only | Print | Product List | Glossary On
Versions: 1 2 3 4 5 6 7 8 9 10 11 12 13 14 15 16 17 18 19 20 21 22 23 24 25 26 27 28
000
FTUS41 KBOX 220539
TAFFMH
TAF
KFMH 220539Z 2206/2306 26005KT 2SM BR BKN003
     FM221000 27009KT P6SM BKN080
     FM221300 26011G25KT P6SM SCT050
     FM222200 27013G20KT P6SM FEW250
     FM230300 31009KT P6SM SKC=

USA.gov is the U.S. government's official web portal to all federal, state and local government web resources and services.